[[{"header":{"parameterUnit":"m.s-1","parameterCategory":1,"la1":30.2991,"la2":30.254,"lo1":-89.0895,"lo2":-89.0444,"dy":0.0017,"dx":0.0017,"nx":28,"ny":28,"refTime":"2024-04-20T21:00:00:Z","depth":0,"parameterNumber":2,"parameterNumberName":"U-component_of_WINDS"},"data":[0,0,0,0,0,0,0,0,0,0,0,0,0,0,0,0,0,0,0,0,0,0,0,0,0,0,0,0,0,0,0,0,0,0,0,0,0,0,0,0,0,0,0,0,0,0,0,0,0,0,0,0,0,0,0,0,0,0,-0.3434,-0.3434,0,-0.3497,-0.3498,-0.3498,-0.3473,-0.3471,-0.347,-0.3468,-0.3537,-0.354,-0.3543,0,0,0,0,0,0,0,0,0,0,0,0,0,-0.3293,-0.3296,-0.3434,-0.3434,-0.3435,-0.3497,-0.3498,-0.3499,-0.3473,-0.3471,-0.3469,-0.3468,-0.3535,-0.3539,-0.3543,0,0,0,0,0,0,0,0,0,0,0,0,0,-0.3355,-0.3297,-0.3433,-0.343,-0.343,-0.3497,-0.3498,-0.3499,-0.3473,-0.3471,-0.3469,-0.3467,-0.3534,-0.3539,-0.3544,-0.3619,0,0,-0.3558,-0.356,0,0,0,0,0,0,0,0,-0.3352,-0.336,-0.343,-0.343,-0.3431,-0.3475,-0.3473,-0.3539,-0.3474,-0.3457,-0.3468,-0.3466,-0.3518,-0.3524,-0.3541,-0.3622,-0.3625,-0.3559,-0.3562,-0.3564,-0.3565,0,0,0,0,0,0,0,-0.3347,-0.3357,-0.3459,-0.3431,-0.3431,-0.3426,-0.3432,-0.3485,-0.35,-0.3458,-0.3457,-0.3464,-0.3518,-0.3536,-0.3542,-0.3626,-0.3559,-0.3563,-0.3566,-0.3568,-0.3771,-0.3774,0,0,0,0,0,0,-0.3343,-0.3354,-0.3457,-0.3461,-0.3385,-0.343,-0.3437,-0.3463,-0.3499,-0.3502,-0.3466,-0.3463,-0.3529,-0.3537,-0.3545,-0.3635,-0.3564,-0.3568,-0.3571,-0.3769,-0.3772,-0.3774,0,0,0,0,0,0,-0.334,-0.3352,-0.3454,-0.3407,-0.3419,-0.3435,-0.3464,-0.3465,-0.3484,-0.3505,-0.3507,-0.3482,-0.3528,-0.3538,-0.36,-0.3637,-0.357,-0.3575,-0.3766,-0.377,-0.3773,-0.3817,0,0,0,0,0,0,-0.3336,-0.3351,-0.3379,-0.3408,-0.3422,-0.3508,-0.3466,-0.3468,-0.3492,-0.3488,-0.3521,-0.3524,-0.3527,-0.3593,-0.3605,-0.3643,-0.3579,-0.3763,-0.3767,-0.3772,-0.3812,-0.3822,-0.383,0,0,0,0,0,-0.3331,-0.339,-0.3381,-0.3393,-0.3457,-0.351,-0.3519,-0.352,-0.3495,-0.3524,-0.3537,-0.3523,-0.3631,-0.36,-0.3613,-0.3653,-0.376,-0.3766,-0.3772,-0.3808,-0.382,-0.383,0,0,0,0,0,0,-0.3367,-0.3394,-0.3384,-0.3454,-0.348,-0.3506,-0.3543,-0.3532,-0.3567,-0.3562,-0.3563,-0.357,-0.3635,-0.365,-0.3614,-0.3727,-0.3692,-0.37,-0.3715,-0.3727,-0.3735,-0.3731,-0.3583,0,0,0,0,0,-0.3383,-0.3422,-0.3444,-0.3503,-0.3517,-0.3527,-0.355,-0.3549,-0.3576,-0.3588,-0.3606,-0.3634,-0.3674,-0.3701,-0.3739,-0.3813,-0.3821,-0.3847,-0.3856,-0.3863,-0.3871,-0.3912,-0.3925,-0.3793,-0.3793,-0.3793,0,0,-0.3416,-0.3436,-0.3461,-0.3511,-0.3531,-0.3573,-0.3537,-0.3583,-0.3615,-0.3595,-0.3655,-0.3669,-0.37,-0.3769,-0.3801,-0.3784,-0.3909,-0.387,-0.3876,-0.388,-0.3919,-0.3932,-0.3943,-0.3797,-0.3796,-0.3796,0,0,-0.35,-0.3518,-0.3569,-0.359,-0.362,-0.3626,-0.3639,-0.3666,-0.3675,-0.3734,-0.372,-0.3758,-0.3827,-0.385,-0.3871,-0.3961,-0.395,-0.3974,-0.402,-0.406,-0.4071,-0.408,-0.4114,-0.4126,-0.3981,-0.3981,-0.3981,0,-0.3538,-0.36,-0.3598,-0.3645,-0.3668,-0.365,-0.3703,-0.3723,-0.3765,-0.3781,-0.3761,-0.3847,-0.3867,-0.3941,-0.3963,-0.398,-0.3995,-0.3971,-0.4069,-0.4079,-0.4087,-0.4119,-0.4132,-0.3984,-0.3984,-0.3983,-0.3983,0,-0.3647,-0.369,-0.3728,-0.3768,-0.3794,-0.3844,-0.385,-0.3877,-0.3873,-0.3882,-0.3943,-0.3966,-0.4008,-0.4025,-0.4022,-0.4099,-0.4088,-0.4068,-0.4034,-0.4103,-0.4133,-0.4145,-0.3988,-0.3987,-0.3986,-0.3985,0,0,-0.3757,-0.3793,-0.3807,-0.3825,-0.3856,-0.389,-0.3939,-0.3979,-0.4003,-0.4032,-0.4074,-0.4132,-0.4114,-0.4138,-0.4136,-0.4171,-0.4243,-0.4148,-0.4149,-0.4166,-0.4331,-0.4346,-0.4361,-0.4234,-0.4236,-0.4238,-0.4328,0,-0.3844,-0.3929,-0.3928,-0.4007,-0.4047,-0.403,-0.4073,-0.4097,-0.4106,-0.4142,-0.4152,-0.4194,-0.4166,-0.418,-0.4214,-0.4227,-0.4276,-0.422,-0.4275,-0.4277,-0.427,-0.4376,-0.4393,-0.4477,-0.434,-0.4342,-0.4343,0,-0.3957,-0.3989,-0.4072,-0.4097,-0.4114,-0.4152,-0.4189,-0.4223,-0.425,-0.4254,-0.428,-0.4273,-0.4323,-0.4285,-0.4355,-0.4317,-0.4339,-0.4348,-0.4351,-0.4359,-0.4316,-0.4388,-0.4504,-0.4518,-0.4362,-0.436,-0.4359,0,-0.4031,-0.4094,-0.4152,-0.4168,-0.4198,-0.4225,-0.4239,-0.4264,-0.4288,-0.432,-0.4336,-0.4374,-0.4395,-0.4425,-0.4428,-0.44,-0.4499,-0.4461,-0.4505,-0.4506,-0.4529,-0.4528,-0.4653,-0.454,-0.454,-0.454,-0.4539,0,-0.413,-0.4182,-0.4186,-0.4222,-0.428,-0.4277,-0.4335,-0.4346,-0.4368,-0.4406,-0.4393,-0.443,-0.4431,-0.4469,-0.4472,-0.453,-0.4539,-0.4545,-0.4545,-0.4547,-0.4547,-0.4563,-0.4558,-0.4543,-0.4542,-0.4541,-0.4541,0,-0.4223,-0.4228,-0.429,-0.4313,-0.432,-0.4362,-0.4382,-0.4416,-0.4423,-0.4472,-0.4483,-0.4494,-0.4538,-0.4543,-0.4594,-0.4596,-0.4667,-0.466,-0.4658,-0.4657,-0.4702,-0.4698,-0.4843,-0.4863,-0.4735,-0.4737,-0.4738,0,-0.4287,-0.4327,-0.4353,-0.4377,-0.4393,-0.4432,-0.4456,-0.4455,-0.4481,-0.4514,-0.4545,-0.4586,-0.462,-0.469,-0.4703,-0.4742,-0.4738,-0.4786,-0.4744,-0.4744,-0.4741,-0.4739,-0.4743,-0.4795,-0.4796,-0.4797,-0.4798,0,-0.44,-0.44,-0.4435,-0.4471,-0.45,-0.4528,-0.4555,-0.4575,-0.4577,-0.4607,-0.4651,-0.4677,-0.4728,-0.477,-0.4808,-0.4823,-0.4812,-0.4811,-0.4823,-0.4827,-0.4825,-0.4828,-0.4682,-0.4808,-0.4807,-0.4806,-0.4806,-0.4805,-0.4482,-0.4516,-0.454,-0.458,-0.4599,-0.4624,-0.4658,-0.4668,-0.4704,-0.4745,-0.4742,-0.479,-0.4816,-0.4865,-0.4883,-0.4921,-0.4906,-0.4924,-0.4929,-0.4934,-0.4939,-0.4816,-0.4928,-0.4928,-0.4927,-0.4927,-0.4927,0,-0.4596,-0.461,-0.4646,-0.4683,-0.4714,-0.4698,-0.4726,-0.4754,-0.4796,-0.482,-0.4853,-0.4903,-0.4944,-0.4959,-0.4999,-0.5027,-0.5022,-0.5037,-0.5036,-0.504,-0.495,-0.4936,-0.504,-0.504,-0.504,-0.504,-0.504,-0.504,-0.4659,-0.4717,-0.4719,-0.4786,-0.48,-0.4847,-0.4864,-0.4887,-0.4907,-0.4963,-0.4996,-0.5005,-0.5026,-0.5067,-0.5103,-0.5107,-0.5123,-0.5141,-0.5142,-0.5058,-0.5047,-0.5036,-0.5023,-0.5144,-0.5144,-0.523,-0.523,-0.5231]},{"header":{"parameterUnit":"m.s-1","parameterCategory":1,"la1":30.2991,"la2":30.254,"lo1":-89.0895,"lo2":-89.0444,"dy":0.0017,"dx":0.0017,"nx":28,"ny":28,"refTime":"2024-04-20T21:00:00:Z","depth":0,"parameterNumber":3,"parameterNumberName":"V-component_of_WINDS"},"data":[0,0,0,0,0,0,0,0,0,0,0,0,0,0,0,0,0,0,0,0,0,0,0,0,0,0,0,0,0,0,0,0,0,0,0,0,0,0,0,0,0,0,0,0,0,0,0,0,0,0,0,0,0,0,0,0,0,0,-6.4699,-6.47,0,-6.4775,-6.4776,-6.4777,-6.4653,-6.4649,-6.4645,-6.4641,-6.4715,-6.4721,-6.4727,0,0,0,0,0,0,0,0,0,0,0,0,0,-6.4442,-6.4447,-6.4699,-6.47,-6.4701,-6.4775,-6.4776,-6.4777,-6.4654,-6.4649,-6.4644,-6.4639,-6.4713,-6.472,-6.4727,0,0,0,0,0,0,0,0,0,0,0,0,0,-6.4539,-6.4449,-6.4699,-6.4648,-6.4645,-6.4775,-6.4776,-6.4778,-6.4655,-6.4649,-6.4643,-6.4637,-6.4711,-6.472,-6.4728,-6.491,0,0,-6.4756,-6.4759,0,0,0,0,0,0,0,0,-6.4534,-6.4549,-6.4655,-6.4652,-6.4648,-6.4698,-6.4713,-6.4822,-6.4657,-6.4651,-6.4641,-6.4633,-6.4715,-6.4723,-6.4751,-6.4914,-6.4917,-6.4756,-6.4762,-6.4766,-6.4768,0,0,0,0,0,0,0,-6.4527,-6.4545,-6.4729,-6.4657,-6.4653,-6.462,-6.4627,-6.4733,-6.4717,-6.4651,-6.4642,-6.4653,-6.4711,-6.4743,-6.4752,-6.4918,-6.4756,-6.4764,-6.4769,-6.4773,-6.5233,-6.5239,0,0,0,0,0,0,-6.4527,-6.454,-6.4727,-6.4731,-6.4574,-6.463,-6.4638,-6.4689,-6.4716,-6.4714,-6.4659,-6.4647,-6.4731,-6.4741,-6.4754,-6.4968,-6.4765,-6.4774,-6.4779,-6.5226,-6.5234,-6.5242,0,0,0,0,0,0,-6.4522,-6.4545,-6.4723,-6.4633,-6.4654,-6.4642,-6.4699,-6.4694,-6.4725,-6.4722,-6.4718,-6.4694,-6.4726,-6.4741,-6.4872,-6.4969,-6.4778,-6.4786,-6.5218,-6.5229,-6.5238,-6.5399,0,0,0,0,0,0,-6.4515,-6.4544,-6.4614,-6.4636,-6.4659,-6.4843,-6.4705,-6.47,-6.4741,-6.4727,-6.4754,-6.4752,-6.4722,-6.486,-6.4881,-6.4978,-6.4793,-6.5209,-6.5223,-6.5235,-6.5385,-6.5414,-6.5438,0,0,0,0,0,-6.4507,-6.4656,-6.4618,-6.4642,-6.4747,-6.4849,-6.4862,-6.4826,-6.4749,-6.4819,-6.4817,-6.4751,-6.4955,-6.4874,-6.4897,-6.4998,-6.5203,-6.5219,-6.5234,-6.5373,-6.5408,-6.5438,0,0,0,0,0,0,-6.4644,-6.4658,-6.4616,-6.4777,-6.4813,-6.4828,-6.4914,-6.4864,-6.4921,-6.4905,-6.4856,-6.4863,-6.5005,-6.5014,-6.4924,-6.5175,-6.5066,-6.5087,-6.5164,-6.5197,-6.5223,-6.5218,-6.48,0,0,0,0,0,-6.4694,-6.4777,-6.4783,-6.4924,-6.4945,-6.4927,-6.497,-6.4939,-6.4973,-6.4988,-6.4995,-6.503,-6.5101,-6.5149,-6.5215,-6.5386,-6.5389,-6.5466,-6.5493,-6.5515,-6.5533,-6.5624,-6.5658,-6.5293,-6.5293,-6.5292,0,0,-6.4796,-6.4813,-6.4869,-6.4953,-6.4977,-6.5063,-6.494,-6.5036,-6.5099,-6.5001,-6.5126,-6.5133,-6.5168,-6.532,-6.5387,-6.5332,-6.5635,-6.5534,-6.5552,-6.5559,-6.5643,-6.5678,-6.5708,-6.5303,-6.5301,-6.53,0,0,-6.5026,-6.5049,-6.5169,-6.5195,-6.5234,-6.5221,-6.525,-6.5272,-6.5274,-6.5398,-6.5327,-6.54,-6.5524,-6.5553,-6.5583,-6.5824,-6.5766,-6.5847,-6.5985,-6.6074,-6.6103,-6.6128,-6.6214,-6.6245,-6.5865,-6.5866,-6.5866,0,-6.5148,-6.5277,-6.5236,-6.5338,-6.5376,-6.5293,-6.5414,-6.5441,-6.5499,-6.5526,-6.5464,-6.5619,-6.5637,-6.5794,-6.5853,-6.5881,-6.5911,-6.5844,-6.6102,-6.6127,-6.615,-6.6231,-6.6264,-6.5875,-6.5874,-6.5873,-6.5872,0,-6.5425,-6.5514,-6.5606,-6.5666,-6.5715,-6.5825,-6.58,-6.5854,-6.5819,-6.5812,-6.594,-6.5958,-6.6026,-6.6061,-6.6027,-6.6213,-6.6178,-6.611,-6.5999,-6.6195,-6.6271,-6.6301,-6.5889,-6.5886,-6.5883,-6.588,0,0,-6.5745,-6.578,-6.5815,-6.5841,-6.5877,-6.5944,-6.605,-6.6118,-6.6165,-6.6207,-6.6295,-6.6402,-6.6339,-6.6374,-6.6342,-6.642,-6.661,-6.6342,-6.6342,-6.6392,-6.6816,-6.6867,-6.6904,-6.6571,-6.6577,-6.6581,-6.6813,0,-6.5974,-6.6159,-6.6126,-6.6305,-6.6387,-6.6309,-6.6401,-6.6432,-6.6429,-6.6496,-6.6491,-6.6569,-6.648,-6.6501,-6.6574,-6.6572,-6.6694,-6.6554,-6.6651,-6.6655,-6.6645,-6.6943,-6.6998,-6.7215,-6.6842,-6.6847,-6.685,0,-6.6267,-6.6322,-6.651,-6.6533,-6.6566,-6.665,-6.6709,-6.6775,-6.6808,-6.68,-6.684,-6.6793,-6.6897,-6.6785,-6.6927,-6.6832,-6.6869,-6.6874,-6.6882,-6.6889,-6.6765,-6.6959,-6.7284,-6.7317,-6.6897,-6.6893,-6.689,0,-6.6482,-6.6602,-6.673,-6.6755,-6.6785,-6.6845,-6.686,-6.6887,-6.693,-6.6981,-6.7008,-6.7071,-6.7105,-6.7153,-6.7124,-6.7045,-6.7271,-6.7157,-6.7267,-6.7268,-6.7318,-6.7315,-6.7653,-6.7342,-6.7342,-6.7341,-6.734,0,-6.6742,-6.686,-6.6827,-6.6906,-6.7036,-6.6995,-6.7124,-6.7129,-6.7154,-6.7232,-6.7167,-6.7241,-6.7198,-6.7268,-6.7245,-6.7366,-6.7382,-6.7377,-6.737,-6.7384,-6.7384,-6.7407,-6.7392,-6.735,-6.7348,-6.7346,-6.7345,0,-6.7004,-6.6987,-6.7122,-6.7139,-6.7146,-6.7241,-6.7255,-6.7328,-6.7319,-6.7418,-6.7438,-6.7425,-6.7503,-6.7479,-6.7564,-6.7549,-6.7702,-6.7675,-6.7692,-6.7685,-6.7797,-6.7787,-6.8162,-6.8208,-6.7867,-6.787,-6.7873,0,-6.7172,-6.7261,-6.7289,-6.7337,-6.7357,-6.7435,-6.7479,-6.7441,-6.7489,-6.7534,-6.7601,-6.7675,-6.7732,-6.7861,-6.7857,-6.7922,-6.7896,-6.8023,-6.7905,-6.7916,-6.7898,-6.7893,-6.7902,-6.8046,-6.805,-6.8054,-6.8056,0,-6.7471,-6.7458,-6.7525,-6.7589,-6.7643,-6.7691,-6.7733,-6.7775,-6.7741,-6.7798,-6.7878,-6.7923,-6.801,-6.8083,-6.8141,-6.8154,-6.81,-6.8093,-6.8122,-6.8137,-6.8143,-6.8141,-6.7756,-6.8085,-6.8082,-6.808,-6.8078,-6.8077,-6.7691,-6.7767,-6.7798,-6.7874,-6.7902,-6.7943,-6.8012,-6.8013,-6.808,-6.8149,-6.8122,-6.8215,-6.8244,-6.8317,-6.8338,-6.8409,-6.836,-6.8402,-6.8412,-6.8424,-6.8438,-6.8132,-6.8419,-6.8418,-6.8418,-6.8417,-6.8416,0,-6.7987,-6.8003,-6.8074,-6.8135,-6.8195,-6.8139,-6.8182,-6.8236,-6.8319,-6.8351,-6.8409,-6.8501,-6.8572,-6.8574,-6.864,-6.8696,-6.8673,-6.8715,-6.871,-6.8714,-6.8478,-6.8446,-6.8733,-6.8733,-6.8733,-6.8733,-6.8732,-6.8732,-6.8148,-6.8274,-6.8264,-6.8402,-6.8417,-6.8508,-6.8538,-6.8574,-6.8601,-6.8707,-6.8766,-6.8768,-6.8788,-6.8855,-6.8917,-6.8915,-6.8942,-6.8994,-6.8983,-6.8762,-6.8731,-6.8701,-6.8671,-6.9,-6.9001,-6.9214,-6.9216,-6.9217]}]]